Location: Fontevrault
(47.1823°N, 0.0493°E)
Time: 17:47:17
(UTC+00:00)

Cosmos 1725 Rocket - Pass Details

Date: 22 October 2021
Orbit: 961 x 991 km, 82.9° (Epoch: 27 November)

Event Time Altitude Azimuth Distance (km) Brightness Sun altitude
Exits shadow 20:24:09 17° 11° (N) 2,256 6.0 -34.9°
Drops below altitude 10° 20:25:24 10° 10° (N) 2,718 6.4 -35.1°
Sets 20:27:54 0° 10° (N) 3,666 7.2 -35.5°
